User: anonymous   Login
Location: Carri�res
(48.9069°N, 2.1792°E)
Time: 03:48:44
(UTC+00:00)
Language:

Cosmos 2082 Rocket - Orbit

View from above orbital plane
View from above orbital plane
View from above satellite
View from above satellite

Ground track
Ground track

The orbit data is extracted from the following two-line orbital elements,

1 20625U 90046B   21107.41442663  .00000272  00000-0  16596-3 0  9996
2 20625  70.9975  90.1883 0013172 147.6758 212.5174 14.14666026595608
Epoch (UTC): 17 April 2021 09:56:46
Eccentricity: 0.0013172
inclination: 70.9975°
perigee height: 834 km
apogee height: 853 km
right ascension of ascending node: 90.1883°
argument of perigee: 147.6758°
revolutions per day: 14.14666026
mean anomaly at epoch: 212.5174°
orbit number at epoch: 59560

The dashed part of the orbit path shows where the satellite is in the earth's shadow,  

DLR